FW5963 Weather Reports


time (UTC)temp
F
wind
direction
speed
knots
gust
knots
rain 1hr
in
rain 24hr
in
rain mn
in
humidity
%
barometer
mb
20260502180914 71 178 1.7 6.1 0.00 0.00 0.00 25 1021.5
20260502180808 71 155 1.7 5.2 0.00 0.00 0.00 25 1021.3
20260502180701 71 159 1.7 7.0 0.00 0.00 0.00 23 1021.3
20260502180602 71 128 1.7 7.0 0.00 0.00 0.00 23 1021.4
20260502180502 71 78 1.7 7.0 0.00 0.00 0.00 26 1021.5
20260502180401 70 136 1.7 7.0 0.00 0.00 0.00 23 1021.5
20260502180344 70 136 1.7 7.0 0.00 0.00 0.00 23 1021.5
20260502180238 70 222 1.7 7.0 0.00 0.00 0.00 22 1021.5
20260502170436 67 94 0.9 3.5 0.00 0.00 0.00 27 1021.8
20260502170330 67 123 0.9 3.5 0.00 0.00 0.00 29 1021.8
20260502170223 67 148 0.9 3.5 0.00 0.00 0.00 28 1021.9
20260502170118 67 144 0.9 3.5 0.00 0.00 0.00 28 1021.8
20260502164302 66 73 0.9 2.6 0.00 0.00 0.00 32 1021.8
20260502164242 66 73 0.9 2.6 0.00 0.00 0.00 31 1021.8
20260502164135 66 73 0.9 2.6 0.00 0.00 0.00 30 1021.8
20260502164033 66 271 0.9 2.6 0.00 0.00 0.00 28 1021.7
20260502163817 66 315 0.9 2.6 0.00 0.00 0.00 28 1021.8
20260502163710 66 249 0.9 3.5 0.00 0.00 0.00 32 1021.8
20260502163603 66 252 0.9 3.5 0.00 0.00 0.00 30 1021.9
20260502163502 66 236 0.9 3.5 0.00 0.00 0.00 31 1021.8
20260502163201 66 133 0.9 3.5 0.00 0.00 0.00 31 1021.8
20260502163140 66 137 0.9 3.5 0.00 0.00 0.00 30 1021.8
20260502163035 66 157 0.9 3.5 0.00 0.00 0.00 30 1021.9
20260502162802 66 236 0.0 2.6 0.00 0.00 0.00 28 1021.9
20260502162732 66 260 0.0 2.6 0.00 0.00 0.00 30 1021.8
20260502162626 66 130 0.0 3.5 0.00 0.00 0.00 31 1021.8
20260502162520 66 222 0.0 2.6 0.00 0.00 0.00 33 1021.8
20260502162415 66 99 0.0 0.9 0.00 0.00 0.00 33 1021.8
20260502162304 66 90 0.0 1.7 0.00 0.00 0.00 35 1021.8
20260502162201 66 101 0.0 1.7 0.00 0.00 0.00 32 1021.7
20260502162124 65 121 0.0 1.7 0.00 0.00 0.00 31 1021.7
20260502162024 65 156 0.0 1.7 0.00 0.00 0.00 30 1021.8
20260502161806 65 86 0.0 1.7 0.00 0.00 0.00 33 1021.7
20260502161702 65 90 0.0 1.7 0.00 0.00 0.00 32 1021.7
20260502161601 65 90 0.0 1.7 0.00 0.00 0.00 33 1021.8
20260502161400 64 76 0.0 0.9 0.00 0.00 0.00 33 1021.7
20260502161201 64 143 0.0 0.9 0.00 0.00 0.00 31 1021.7
20260502161102 64 142 0.0 0.9 0.00 0.00 0.00 31 1021.7
20260502160901 64 146 0.0 0.9 0.00 0.00 0.00 30 1021.7
20260502160840 64 146 0.0 0.9 0.00 0.00 0.00 30 1021.7
20260502160734 64 146 0.0 0.9 0.00 0.00 0.00 30 1021.7
20260502160628 64 184 0.0 0.9 0.00 0.00 0.00 31 1021.7
20260502160522 64 186 0.0 0.9 0.00 0.00 0.00 31 1021.7
20260502160301 64 185 0.0 0.9 0.00 0.00 0.00 35 1021.7
20260502160220 64 161 0.0 0.9 0.00 0.00 0.00 34 1021.7
20260502160114 64 235 0.0 0.9 0.00 0.00 0.00 32 1021.6
20260502152310 62 138 0.0 1.7 0.00 0.00 0.00 31 1021.8
20260502152203 62 161 0.0 1.7 0.00 0.00 0.00 32 1021.8
20260502152002 62 141 0.0 0.0 0.00 0.00 0.00 32 1021.9
20260502151902 62 142 0.0 0.0 0.00 0.00 0.00 33 1021.9
20260502151802 61 177 0.0 0.0 0.00 0.00 0.00 32 1021.8
20260502151701 61 177 0.0 0.0 0.00 0.00 0.00 33 1021.8
20260502151601 61 186 0.0 0.0 0.00 0.00 0.00 33 1021.9
20260502151502 61 144 0.0 0.0 0.00 0.00 0.00 34 1021.9
20260502151408 61 144 0.0 0.0 0.00 0.00 0.00 34 1021.8
20260502151302 61 144 0.0 0.0 0.00 0.00 0.00 35 1021.8
20260502151201 61 144 0.0 0.0 0.00 0.00 0.00 35 1021.8
20260502151101 60 144 0.0 0.0 0.00 0.00 0.00 37 1021.8
20260502151003 60 144 0.0 0.0 0.00 0.00 0.00 34 1021.9
20260502150902 60 144 0.0 0.0 0.00 0.00 0.00 35 1021.8
20260502150802 60 144 0.0 0.9 0.00 0.00 0.00 34 1021.8
20260502150701 60 144 0.0 0.9 0.00 0.00 0.00 35 1021.8
20260502150600 60 144 0.0 0.9 0.00 0.00 0.00 34 1021.8
20260502150501 60 144 0.0 0.9 0.00 0.00 0.00 34 1021.9
20260502150401 60 144 0.0 0.9 0.00 0.00 0.00 34 1021.8
20260502150330 60 144 0.0 0.9 0.00 0.00 0.00 34 1021.8
20260502150200 60 105 0.0 0.9 0.00 0.00 0.00 36 1021.8
20260502130600 39 207 0.0 0.0 0.00 0.00 0.00 69 1021.4
20260502130539 39 207 0.0 0.0 0.00 0.00 0.00 69 1021.4
20260502130430 39 209 0.0 0.0 0.00 0.00 0.00 69 1021.5
20260502130220 39 207 0.0 0.0 0.00 0.00 0.00 69 1021.5
20260502130111 39 207 0.0 0.0 0.00 0.00 0.00 69 1021.6
20260502123724 39 207 0.0 0.0 0.00 0.00 0.00 69 1021.5
20260502123613 39 207 0.0 0.0 0.00 0.00 0.00 69 1021.3
20260502123301 39 207 0.0 0.0 0.00 0.00 0.00 69 1021.3
20260502123139 39 207 0.0 0.0 0.00 0.00 0.00 69 1021.3
20260502123033 39 207 0.0 0.0 0.00 0.00 0.00 69 1021.3
20260502122922 39 207 0.0 0.0 0.00 0.00 0.00 69 1021.3
20260502122812 39 207 0.0 0.0 0.00 0.00 0.00 69 1021.3
20260502122601 39 207 0.0 0.0 0.00 0.00 0.00 69 1021.3
20260502122339 39 207 0.0 0.0 0.00 0.00 0.00 69 1021.3
20260502122232 39 207 0.0 0.0 0.00 0.00 0.00 69 1021.3
20260502122024 39 207 0.0 0.0 0.00 0.00 0.00 69 1021.2
20260502121907 39 207 0.0 0.0 0.00 0.00 0.00 69 1021.3
20260502121800 39 207 0.0 0.0 0.00 0.00 0.00 69 1021.3
20260502121601 39 207 0.0 0.0 0.00 0.00 0.00 69 1021.3
20260502121541 39 207 0.0 0.0 0.00 0.00 0.00 69 1021.3
20260502121325 39 207 0.0 0.0 0.00 0.00 0.00 69 1021.3
20260502121217 39 207 0.0 0.0 0.00 0.00 0.00 69 1021.3
20260502121108 39 207 0.0 0.0 0.00 0.00 0.00 69 1021.3
20260502121004 40 207 0.0 0.0 0.00 0.00 0.00 69 1021.3
20260502120900 40 207 0.0 0.0 0.00 0.00 0.00 69 1021.4
20260502120802 40 207 0.0 0.0 0.00 0.00 0.00 69 1021.4
20260502120702 40 207 0.0 0.0 0.00 0.00 0.00 69 1021.3
20260502120602 40 207 0.0 0.9 0.00 0.00 0.00 69 1021.3
20260502120501 40 207 0.0 0.9 0.00 0.00 0.00 69 1021.3
20260502120202 40 207 0.0 0.9 0.00 0.00 0.00 69 1021.3
20260502115901 40 207 0.0 0.9 0.00 0.00 0.00 69 1021.3
20260502115801 40 207 0.0 0.9 0.00 0.00 0.00 69 1021.3
20260502115741 40 207 0.0 0.9 0.00 0.00 0.00 69 1021.3
20260502115633 40 207 0.0 0.0 0.00 0.00 0.00 69 1021.3
20260502115525 40 207 0.0 0.0 0.00 0.00 0.00 69 1021.3
20260502115416 40 207 0.0 0.0 0.00 0.00 0.00 69 1021.3
20260502115305 40 207 0.0 0.0 0.00 0.00 0.00 69 1021.3
20260502115218 40 207 0.0 0.0 0.00 0.00 0.00 69 1021.3
20260502115111 40 207 0.0 0.0 0.00 0.00 0.00 69 1021.3
20260502115001 40 207 0.0 0.0 0.00 0.00 0.00 69 1021.3
20260502114900 40 207 0.0 0.0 0.00 0.00 0.00 69 1021.3
20260502114700 40 207 0.0 0.0 0.00 0.00 0.00 69 1021.3
20260502114401 40 207 0.0 0.9 0.00 0.00 0.00 69 1021.3
20260502114301 41 207 0.0 0.9 0.00 0.00 0.00 69 1021.4
20260502114200 41 207 0.0 0.9 0.00 0.00 0.00 69 1021.3
20260502114141 41 207 0.0 0.9 0.00 0.00 0.00 69 1021.3
20260502114031 41 207 0.0 0.9 0.00 0.00 0.00 69 1021.3
20260502113859 41 207 0.0 0.9 0.00 0.00 0.00 69 1021.4
20260502113831 41 207 0.0 0.9 0.00 0.00 0.00 69 1021.4
20260502113501 41 207 0.0 0.0 0.00 0.00 0.00 68 1021.3
20260502113400 41 207 0.0 0.9 0.00 0.00 0.00 68 1021.4
20260502113301 41 207 0.0 0.9 0.00 0.00 0.00 68 1021.5
20260502113241 41 207 0.0 0.9 0.00 0.00 0.00 68 1021.5
20260502113131 41 207 0.0 2.6 0.00 0.00 0.00 68 1021.4
20260502113025 41 207 0.0 2.6 0.00 0.00 0.00 68 1021.5
20260502112901 41 207 0.0 2.6 0.00 0.00 0.00 68 1021.4
20260502112801 41 207 0.0 2.6 0.00 0.00 0.00 68 1021.5
20260502112700 41 207 0.0 2.6 0.00 0.00 0.00 67 1021.3
20260502112601 41 207 0.0 2.6 0.00 0.00 0.00 67 1021.4
20260502112540 41 207 0.0 2.6 0.00 0.00 0.00 67 1021.4
20260502112430 41 207 0.0 2.6 0.00 0.00 0.00 67 1021.4
20260502112103 41 211 0.0 0.0 0.00 0.00 0.00 66 1021.5
20260502112001 41 210 0.0 0.0 0.00 0.00 0.00 66 1021.5
20260502111901 41 210 0.0 0.0 0.00 0.00 0.00 65 1021.5
20260502111841 41 210 0.0 0.0 0.00 0.00 0.00 65 1021.5
20260502111731 41 210 0.0 0.0 0.00 0.00 0.00 65 1021.5
20260502111620 41 210 0.0 0.0 0.00 0.00 0.00 65 1021.5
20260502111511 42 210 0.0 0.0 0.00 0.00 0.00 65 1021.4
20260502111401 42 210 0.0 0.0 0.00 0.00 0.00 65 1021.4
20260502111301 42 210 0.0 0.0 0.00 0.00 0.00 65 1021.4
20260502111201 42 210 0.0 0.0 0.00 0.00 0.00 65 1021.5
20260502111100 42 210 0.0 0.9 0.00 0.00 0.00 65 1021.4
20260502111021 42 210 0.0 0.9 0.00 0.00 0.00 65 1021.4
20260502110903 42 210 0.0 1.7 0.00 0.00 0.00 65 1021.5
20260502110802 42 210 0.0 1.7 0.00 0.00 0.00 65 1021.5
20260502110702 42 211 0.0 1.7 0.00 0.00 0.00 66 1021.5
20260502110502 42 210 0.9 1.7 0.00 0.00 0.00 66 1021.4
20260502110443 42 210 0.9 1.7 0.00 0.00 0.00 66 1021.5
20260502110333 42 210 0.9 1.7 0.00 0.00 0.00 66 1021.4
20260502110005 42 210 0.9 1.7 0.00 0.00 0.00 67 1021.4
20260502105900 41 210 0.9 1.7 0.00 0.00 0.00 67 1021.5
20260502105800 41 210 0.9 1.7 0.00 0.00 0.00 67 1021.4
20260502105743 41 210 0.9 1.7 0.00 0.00 0.00 67 1021.4
20260502105600 41 210 0.9 1.7 0.00 0.00 0.00 67 1021.4
20260502105500 41 210 0.9 1.7 0.00 0.00 0.00 68 1021.5
20260502105400 41 211 0.0 1.7 0.00 0.00 0.00 68 1021.4
20260502105300 41 211 0.0 1.7 0.00 0.00 0.00 68 1021.5
20260502105245 41 210 0.0 1.7 0.00 0.00 0.00 68 1021.5
20260502105134 41 211 0.0 1.7 0.00 0.00 0.00 68 1021.4
20260502105036 41 210 0.0 0.9 0.00 0.00 0.00 68 1021.3
20260502104859 41 210 0.0 0.9 0.00 0.00 0.00 69 1021.4
20260502104825 41 211 0.0 0.0 0.00 0.00 0.00 69 1021.4
20260502104715 41 210 0.0 0.9 0.00 0.00 0.00 69 1021.5
20260502104605 41 210 0.0 0.9 0.00 0.00 0.00 69 1021.5
20260502104500 41 211 0.0 0.9 0.00 0.00 0.00 69 1021.4
20260502104401 41 210 0.0 0.9 0.00 0.00 0.00 69 1021.4
20260502104344 42 210 0.0 0.9 0.00 0.00 0.00 69 1021.4
20260502104235 42 211 0.0 0.9 0.00 0.00 0.00 69 1021.4
20260502104125 42 211 0.0 0.9 0.00 0.00 0.00 69 1021.4
20260502104024 42 211 0.0 0.9 0.00 0.00 0.00 70 1021.4
20260502103905 42 211 0.0 0.9 0.00 0.00 0.00 69 1021.4
20260502103801 42 210 0.0 0.0 0.00 0.00 0.00 69 1021.4
20260502103645 42 210 0.0 0.0 0.00 0.00 0.00 69 1021.4
20260502103535 42 210 0.0 0.0 0.00 0.00 0.00 69 1021.4
20260502103400 42 211 0.0 0.0 0.00 0.00 0.00 69 1021.3
20260502103201 42 210 0.0 0.0 0.00 0.00 0.00 69 1021.3
20260502103102 42 210 0.0 0.0 0.00 0.00 0.00 68 1021.3
20260502103001 42 211 0.0 0.0 0.00 0.00 0.00 68 1021.4
20260502102943 42 211 0.0 0.0 0.00 0.00 0.00 68 1021.4
20260502102834 42 210 0.0 0.0 0.00 0.00 0.00 68 1021.3
20260502102723 42 210 0.0 0.0 0.00 0.00 0.00 68 1021.2
20260502102613 42 210 0.0 0.0 0.00 0.00 0.00 68 1021.3
20260502102503 43 210 0.0 0.9 0.00 0.00 0.00 68 1021.3
20260502102401 43 210 0.0 0.9 0.00 0.00 0.00 68 1021.3
20260502102300 43 210 0.0 0.9 0.00 0.00 0.00 68 1021.3
20260502102242 43 210 0.0 0.9 0.00 0.00 0.00 68 1021.3
20260502101913 43 210 0.0 0.9 0.00 0.00 0.00 68 1021.3
20260502101803 43 210 0.0 0.9 0.00 0.00 0.00 68 1021.3
20260502101700 43 210 0.0 0.9 0.00 0.00 0.00 68 1021.3
20260502101542 43 210 0.0 0.9 0.00 0.00 0.00 68 1021.2
20260502101433 43 210 0.0 0.9 0.00 0.00 0.00 68 1021.3
20260502101323 43 210 0.0 0.9 0.00 0.00 0.00 68 1021.3
20260502101213 43 210 0.0 0.9 0.00 0.00 0.00 68 1021.3
20260502101103 43 211 0.0 0.9 0.00 0.00 0.00 67 1021.3
20260502100901 43 211 0.0 0.9 0.00 0.00 0.00 67 1021.1
20260502100842 43 210 0.0 0.9 0.00 0.00 0.00 67 1021.1
20260502100733 43 210 0.0 0.9 0.00 0.00 0.00 67 1021.1
20260502100623 43 210 0.0 0.9 0.00 0.00 0.00 66 1021.1
20260502100512 43 211 0.0 0.0 0.00 0.00 0.00 66 1021.1
20260502100403 43 210 0.0 0.0 0.00 0.00 0.00 66 1021.1
20260502100142 44 211 0.0 0.0 0.00 0.00 0.00 66 1021.1
20260502091523 44 210 0.9 1.7 0.00 0.00 0.00 64 1021.1
20260502091412 44 210 0.9 1.7 0.00 0.00 0.00 64 1021.1
20260502091200 44 210 0.9 1.7 0.00 0.00 0.00 64 1021.1
20260502091100 44 210 0.9 1.7 0.00 0.00 0.00 64 1021.1
20260502091044 44 210 0.9 1.7 0.00 0.00 0.00 64 1021.1
20260502090822 44 210 0.9 2.6 0.00 0.00 0.00 65 1021.1
20260502090603 43 210 0.9 2.6 0.00 0.00 0.00 65 1021.3
20260502090500 43 210 0.9 2.6 0.00 0.00 0.00 65 1021.1
20260502090344 43 210 0.9 2.6 0.00 0.00 0.00 65 1021.2
20260502071501 47 241 0.0 1.7 0.00 0.00 0.00 61 1020.9
20260502071401 47 241 0.0 1.7 0.00 0.00 0.00 61 1020.9
20260502071302 47 241 0.0 1.7 0.00 0.00 0.00 61 1020.8
20260502071202 47 241 0.0 1.7 0.00 0.00 0.00 61 1020.8
20260502071101 47 241 0.0 1.7 0.00 0.00 0.00 61 1020.8
20260502070901 47 241 0.0 1.7 0.00 0.00 0.00 61 1020.8
20260502070802 47 241 0.0 1.7 0.00 0.00 0.00 61 1020.8
20260502070701 47 241 0.0 1.7 0.00 0.00 0.00 61 1020.8
20260502070527 47 241 0.0 1.7 0.00 0.00 0.00 61 1020.8
20260502070420 47 241 0.0 1.7 0.00 0.00 0.00 61 1020.8
20260502070312 47 241 0.9 1.7 0.00 0.00 0.00 61 1020.8
20260502070205 47 241 0.9 1.7 0.00 0.00 0.00 61 1020.9
20260502070101 47 241 0.9 1.7 0.00 0.00 0.00 61 1020.8
20260502070001 47 241 0.9 1.7 0.00 0.00 0.00 61 1021.0
20260502065901 47 241 0.9 1.7 0.00 0.00 0.00 61 1020.9
20260502065800 47 241 0.9 1.7 0.00 0.00 0.00 61 1021.0
20260502065700 47 241 0.9 1.7 0.00 0.00 0.00 61 1020.8
20260502065503 47 241 0.0 1.7 0.00 0.00 0.00 61 1020.9
20260502065401 47 241 0.0 1.7 0.00 0.00 0.00 61 1020.8
20260502065305 48 55 0.0 0.9 0.00 0.00 0.00 58 1020.8
20260502065038 48 58 0.0 0.9 0.00 0.00 0.00 59 1021.0
20260502064931 48 59 0.0 0.0 0.00 0.00 0.00 58 1021.0
20260502064826 48 59 0.0 0.9 0.00 0.00 0.00 57 1021.0
20260502064719 48 59 0.0 0.9 0.00 0.00 0.00 57 1021.0
20260502064613 48 59 0.0 0.9 0.00 0.00 0.00 57 1021.0
20260502064508 48 59 0.0 0.9 0.00 0.00 0.00 57 1021.0
20260502064401 48 59 0.0 0.9 0.00 0.00 0.00 57 1021.0
20260502064300 49 59 0.0 0.9 0.00 0.00 0.00 57 1020.9
20260502064200 49 59 0.0 0.9 0.00 0.00 0.00 57 1021.0
20260502064100 49 59 0.0 0.9 0.00 0.00 0.00 57 1021.0
20260502064000 49 59 0.0 0.9 0.00 0.00 0.00 57 1021.0
20260502063818 49 282 0.0 0.9 0.00 0.00 0.00 57 1021.0
20260502063712 49 282 0.0 0.9 0.00 0.00 0.00 57 1021.0
20260502063605 49 282 0.0 0.9 0.00 0.00 0.00 57 1021.0
20260502063501 49 282 0.0 0.9 0.00 0.00 0.00 57 1020.9
20260502063402 49 281 0.0 0.9 0.00 0.00 0.00 57 1021.0
20260502063302 48 281 0.0 0.9 0.00 0.00 0.00 58 1021.0
20260502063201 48 259 0.0 0.9 0.00 0.00 0.00 58 1021.0
20260502063101 48 259 0.0 0.9 0.00 0.00 0.00 58 1020.9
20260502063001 48 259 0.0 0.9 0.00 0.00 0.00 58 1021.0
20260502062800 48 259 0.0 0.9 0.00 0.00 0.00 59 1021.0
20260502062621 48 250 0.0 0.9 0.00 0.00 0.00 59 1021.0
20260502062515 48 249 0.0 0.9 0.00 0.00 0.00 59 1021.0
20260502062411 48 249 0.0 0.9 0.00 0.00 0.00 59 1021.1
20260502062306 47 249 0.0 0.9 0.00 0.00 0.00 60 1021.0
20260502062200 47 249 0.0 0.9 0.00 0.00 0.00 60 1021.0
20260502062107 47 249 0.0 0.9 0.00 0.00 0.00 60 1021.0
20260502061901 47 249 0.0 0.0 0.00 0.00 0.00 61 1021.0
20260502061645 47 249 0.0 0.0 0.00 0.00 0.00 61 1021.0
20260502061432 47 249 0.0 0.0 0.00 0.00 0.00 62 1021.0
20260502061219 47 249 0.0 0.9 0.00 0.00 0.00 61 1021.0
20260502061114 47 249 0.0 0.9 0.00 0.00 0.00 61 1021.0
20260502061009 47 249 0.0 0.9 0.00 0.00 0.00 61 1021.0
20260502060902 47 249 0.0 0.9 0.00 0.00 0.00 60 1021.0
20260502060801 47 249 0.0 0.9 0.00 0.00 0.00 60 1021.0
20260502060701 47 249 0.0 0.9 0.00 0.00 0.00 60 1021.0
20260502060600 47 249 0.0 0.9 0.00 0.00 0.00 60 1021.0
20260502060544 47 249 0.0 0.9 0.00 0.00 0.00 60 1021.0
20260502060400 47 249 0.0 0.9 0.00 0.00 0.00 60 1021.0
20260502060340 47 249 0.0 0.9 0.00 0.00 0.00 60 1021.0
20260502060210 48 249 0.0 0.9 0.00 0.00 0.00 59 1020.9
20260502060104 48 249 0.0 0.9 0.00 0.00 0.00 59 1021.0
20260502060007 48 249 0.0 0.9 0.00 0.00 0.00 58 1020.9
20260502055904 48 249 0.0 0.9 0.00 0.00 0.00 59 1021.0
20260502055802 48 261 0.0 0.9 0.00 0.00 0.00 58 1020.9
20260502055746 48 94 0.0 0.9 0.00 0.00 0.00 58 1020.9
20260502055639 48 94 0.0 0.0 0.00 0.00 0.00 57 1021.0
20260502055533 48 94 0.0 0.0 0.00 0.00 0.00 57 1020.9
20260502055428 48 94 0.0 0.0 0.00 0.00 0.00 57 1020.9
20260502055216 48 94 0.0 0.0 0.00 0.00 0.00 57 1020.8
20260502055109 49 94 0.0 0.0 0.00 0.00 0.00 56 1020.8
20260502055004 49 94 0.0 0.0 0.00 0.00 0.00 56 1020.8
20260502054902 49 94 0.0 0.0 0.00 0.00 0.00 55 1020.9
20260502054602 49 94 0.0 0.0 0.00 0.00 0.00 55 1020.8
20260502054502 50 94 0.0 0.0 0.00 0.00 0.00 55 1020.7
20260502054403 50 94 0.0 0.0 0.00 0.00 0.00 54 1020.8
20260502054208 50 94 0.0 0.9 0.00 0.00 0.00 54 1020.8
20260502053903 50 94 0.0 0.9 0.00 0.00 0.00 54 1020.7
20260502053742 50 94 0.0 0.9 0.00 0.00 0.00 54 1020.8
20260502053636 50 94 0.0 0.9 0.00 0.00 0.00 54 1020.7
20260502053529 50 94 0.0 0.9 0.00 0.00 0.00 54 1020.8
20260502053317 50 94 0.0 0.0 0.00 0.00 0.00 55 1020.8
20260502053212 50 94 0.0 0.0 0.00 0.00 0.00 55 1020.8
20260502053106 50 94 0.0 0.0 0.00 0.00 0.00 56 1020.8
20260502053004 50 94 0.0 0.0 0.00 0.00 0.00 56 1020.8
20260502052902 49 94 0.0 0.0 0.00 0.00 0.00 56 1020.8
20260502052802 49 94 0.0 0.0 0.00 0.00 0.00 56 1020.7
20260502052703 49 94 0.0 0.0 0.00 0.00 0.00 56 1020.8
20260502052602 49 94 0.0 0.0 0.00 0.00 0.00 55 1020.8
20260502052503 49 94 0.0 0.0 0.00 0.00 0.00 55 1020.8
20260502052402 50 94 0.0 0.0 0.00 0.00 0.00 55 1020.9
20260502052333 50 94 0.0 0.0 0.00 0.00 0.00 55 1020.9
20260502052228 50 94 0.0 0.0 0.00 0.00 0.00 55 1020.8
20260502052002 50 94 0.0 0.0 0.00 0.00 0.00 54 1020.8
20260502051926 50 94 0.0 0.0 0.00 0.00 0.00 54 1020.8
20260502051820 50 94 0.0 0.0 0.00 0.00 0.00 54 1020.8
20260502051714 51 94 0.0 0.0 0.00 0.00 0.00 54 1020.8
20260502051607 51 94 0.0 0.0 0.00 0.00 0.00 53 1020.8
20260502051502 51 94 0.0 0.0 0.00 0.00 0.00 53 1020.8
20260502051401 51 94 0.0 0.0 0.00 0.00 0.00 52 1020.8
20260502051303 51 94 0.0 0.0 0.00 0.00 0.00 52 1020.8
20260502051202 51 94 0.0 0.0 0.00 0.00 0.00 52 1020.8
20260502051143 51 94 0.0 0.0 0.00 0.00 0.00 52 1020.8
20260502051039 51 94 0.0 0.0 0.00 0.00 0.00 51 1020.8
20260502050932 52 94 0.0 0.0 0.00 0.00 0.00 51 1020.8
20260502050826 51 94 0.0 0.0 0.00 0.00 0.00 51 1020.8
20260502050719 51 96 0.0 0.0 0.00 0.00 0.00 51 1020.8
20260502050508 51 96 0.0 0.0 0.00 0.00 0.00 52 1020.8
20260502050403 51 96 0.0 0.0 0.00 0.00 0.00 52 1020.8
20260502050303 51 96 0.0 0.0 0.00 0.00 0.00 52 1020.8
20260502050202 51 96 0.0 0.0 0.00 0.00 0.00 52 1020.8
20260502050107 51 97 0.0 0.0 0.00 0.00 0.00 52 1020.8
20260502045938 51 97 0.0 0.0 0.00 0.00 0.00 52 1020.8
20260502045831 51 97 0.0 0.0 0.00 0.00 0.00 52 1020.7
20260502045726 51 97 0.0 0.0 0.00 0.00 0.00 52 1020.7
20260502045619 51 97 0.0 0.0 0.00 0.00 0.00 52 1020.8
20260502045513 51 97 0.0 0.0 0.00 0.00 0.00 52 1020.8
20260502045407 51 97 0.0 0.0 0.00 0.00 0.00 51 1020.7
20260502045305 51 97 0.0 0.0 0.00 0.00 0.00 51 1020.7
20260502045202 52 97 0.0 0.0 0.00 0.00 0.00 51 1020.7
20260502045102 52 97 0.0 0.0 0.00 0.00 0.00 51 1020.7
20260502045004 52 97 0.0 0.0 0.00 0.00 0.00 51 1020.7
20260502044902 52 97 0.0 0.0 0.00 0.00 0.00 51 1020.7
20260502044803 52 97 0.0 0.0 0.00 0.00 0.00 52 1020.7
20260502044702 52 97 0.0 0.0 0.00 0.00 0.00 51 1020.7
20260502044641 52 97 0.0 0.0 0.00 0.00 0.00 51 1020.7
20260502044536 52 97 0.0 0.0 0.00 0.00 0.00 51 1020.8
20260502044218 52 97 0.0 0.0 0.00 0.00 0.00 52 1020.8
20260502044112 52 97 0.0 0.0 0.00 0.00 0.00 51 1020.8
20260502044006 52 97 0.0 0.0 0.00 0.00 0.00 51 1020.8
20260502043903 52 97 0.0 0.0 0.00 0.00 0.00 51 1020.7
20260502043803 52 97 0.0 0.0 0.00 0.00 0.00 50 1020.8
20260502043703 52 97 0.0 0.0 0.00 0.00 0.00 50 1020.8
20260502043602 52 97 0.0 0.0 0.00 0.00 0.00 50 1020.8
20260502043542 52 97 0.0 0.0 0.00 0.00 0.00 50 1020.8
20260502043329 53 97 0.0 0.9 0.00 0.00 0.00 49 1020.7
20260502043223 53 97 0.0 0.9 0.00 0.00 0.00 49 1020.7
20260502043004 53 97 0.0 0.9 0.00 0.00 0.00 49 1020.7
20260502042802 53 97 0.0 0.9 0.00 0.00 0.00 49 1020.7
20260502042702 53 97 0.0 0.9 0.00 0.00 0.00 48 1020.8
20260502042602 53 97 0.0 0.9 0.00 0.00 0.00 48 1020.8
20260502042503 53 97 0.0 0.9 0.00 0.00 0.00 48 1020.7
20260502042403 53 98 0.0 0.0 0.00 0.00 0.00 49 1020.7
20260502042305 53 107 0.0 0.0 0.00 0.00 0.00 49 1020.7
20260502042115 53 107 0.0 0.0 0.00 0.00 0.00 50 1020.8
20260502042010 53 107 0.0 0.0 0.00 0.00 0.00 50 1020.7
20260502041903 53 113 0.0 0.0 0.00 0.00 0.00 50 1020.6
20260502041802 53 113 0.0 0.0 0.00 0.00 0.00 51 1020.7
20260502041702 53 113 0.0 0.0 0.00 0.00 0.00 51 1020.7
20260502041601 53 113 0.0 0.0 0.00 0.00 0.00 52 1020.7
20260502041545 53 113 0.0 0.0 0.00 0.00 0.00 52 1020.7
20260502041228 52 113 0.0 0.0 0.00 0.00 0.00 52 1020.7
20260502041121 53 88 0.0 0.0 0.00 0.00 0.00 52 1020.7
20260502041029 53 88 0.0 0.0 0.00 0.00 0.00 52 1020.7
20260502040903 53 88 0.0 0.0 0.00 0.00 0.00 52 1020.6
20260502040802 53 88 0.0 0.0 0.00 0.00 0.00 52 1020.6
20260502040701 53 88 0.0 0.0 0.00 0.00 0.00 52 1020.5
20260502040602 53 88 0.0 0.0 0.00 0.00 0.00 52 1020.6
20260502040502 53 88 0.0 0.0 0.00 0.00 0.00 52 1020.6
20260502040402 53 87 0.0 0.0 0.00 0.00 0.00 53 1020.5
20260502040202 53 87 0.0 0.9 0.00 0.00 0.00 53 1020.5
20260502040044 53 89 0.0 0.9 0.00 0.00 0.00 53 1020.5
20260502035726 53 88 0.0 0.9 0.00 0.00 0.00 53 1020.5
20260502035620 53 89 0.0 0.9 0.00 0.00 0.00 53 1020.5
20260502035513 53 88 0.0 0.9 0.00 0.00 0.00 54 1020.5
20260502035408 53 109 0.0 0.9 0.00 0.00 0.00 54 1020.4
20260502035301 53 109 0.0 0.9 0.00 0.00 0.00 54 1020.4
20260502035202 53 109 0.0 0.9 0.00 0.00 0.00 54 1020.4
20260502035103 53 271 0.0 0.9 0.00 0.00 0.00 54 1020.4
20260502035003 53 271 0.0 0.0 0.00 0.00 0.00 54 1020.4
20260502034902 53 271 0.0 0.0 0.00 0.00 0.00 54 1020.4
20260502034801 53 271 0.0 0.0 0.00 0.00 0.00 54 1020.4
20260502034612 53 271 0.0 0.0 0.00 0.00 0.00 54 1020.3
20260502034505 53 271 0.0 0.0 0.00 0.00 0.00 54 1020.4
20260502034403 53 271 0.0 0.0 0.00 0.00 0.00 54 1020.3
20260502034303 53 271 0.0 0.0 0.00 0.00 0.00 54 1020.4
20260502034202 53 271 0.0 0.0 0.00 0.00 0.00 53 1020.3
20260502034102 53 271 0.0 0.0 0.00 0.00 0.00 53 1020.3
20260502034042 53 271 0.0 0.0 0.00 0.00 0.00 53 1020.3
20260502033935 53 271 0.0 0.0 0.00 0.00 0.00 53 1020.3
20260502033830 53 271 0.0 0.0 0.00 0.00 0.00 53 1020.3
20260502033618 53 271 0.0 0.0 0.00 0.00 0.00 52 1020.3
20260502033511 54 271 0.0 0.0 0.00 0.00 0.00 52 1020.3
20260502033303 54 271 0.0 0.0 0.00 0.00 0.00 52 1020.2
20260502033202 54 271 0.0 0.0 0.00 0.00 0.00 52 1020.2
20260502033103 53 271 0.0 0.0 0.00 0.00 0.00 53 1020.2
20260502033004 53 270 0.0 0.0 0.00 0.00 0.00 53 1020.2
20260502032903 54 270 0.0 0.0 0.00 0.00 0.00 53 1020.2
20260502032802 53 270 0.0 0.0 0.00 0.00 0.00 52 1020.2
20260502032702 53 270 0.0 0.0 0.00 0.00 0.00 52 1020.1
20260502032602 54 270 0.0 0.0 0.00 0.00 0.00 52 1020.2
20260502032503 54 270 0.0 0.0 0.00 0.00 0.00 51 1020.1
20260502032402 54 270 0.0 0.0 0.00 0.00 0.00 51 1020.1
20260502032305 54 270 0.0 0.0 0.00 0.00 0.00 51 1020.1
20260502032202 54 270 0.0 0.0 0.00 0.00 0.00 51 1020.1
20260502032139 54 270 0.0 0.0 0.00 0.00 0.00 51 1020.1
20260502031927 54 270 0.0 0.0 0.00 0.00 0.00 51 1020.1
20260502031821 54 270 0.0 0.0 0.00 0.00 0.00 51 1020.0
20260502031401 55 270 0.0 0.0 0.00 0.00 0.00 50 1019.9
20260502031302 55 270 0.0 0.0 0.00 0.00 0.00 50 1020.0
20260502031202 55 270 0.0 0.0 0.00 0.00 0.00 51 1019.9
20260502031145 55 270 0.0 0.0 0.00 0.00 0.00 51 1019.9
20260502031040 55 270 0.0 0.0 0.00 0.00 0.00 50 1019.9
20260502030802 55 270 0.0 0.0 0.00 0.00 0.00 50 1019.9
20260502030702 55 270 0.0 0.0 0.00 0.00 0.00 49 1019.9
20260502030535 55 270 0.0 0.0 0.00 0.00 0.00 50 1019.9
20260502030430 56 270 0.0 0.0 0.00 0.00 0.00 49 1019.8
20260502030324 56 270 0.0 0.0 0.00 0.00 0.00 49 1019.8
20260502030217 56 270 0.0 0.0 0.00 0.00 0.00 49 1019.8
20260502030112 56 270 0.0 0.0 0.00 0.00 0.00 48 1019.8
20260502030007 56 270 0.0 0.0 0.00 0.00 0.00 48 1019.8
20260502025902 56 270 0.0 0.0 0.00 0.00 0.00 48 1019.8
20260502025802 56 270 0.0 0.0 0.00 0.00 0.00 48 1019.8
20260502025702 56 270 0.0 0.0 0.00 0.00 0.00 48 1019.7
20260502025401 57 270 0.0 0.0 0.00 0.00 0.00 47 1019.7
20260502025301 57 270 0.0 0.0 0.00 0.00 0.00 47 1019.7
20260502025202 57 270 0.0 0.0 0.00 0.00 0.00 47 1019.8
20260502025145 57 270 0.0 0.0 0.00 0.00 0.00 47 1019.8
20260502025041 57 270 0.0 0.0 0.00 0.00 0.00 47 1019.7
20260502024934 57 270 0.0 0.0 0.00 0.00 0.00 47 1019.8
20260502024828 57 270 0.0 0.0 0.00 0.00 0.00 47 1019.7
20260502024722 57 271 0.0 0.9 0.00 0.00 0.00 47 1019.7
20260502024615 57 252 0.0 0.9 0.00 0.00 0.00 47 1019.7
20260502024509 57 252 0.0 0.9 0.00 0.00 0.00 47 1019.6
20260502024404 57 254 0.0 0.9 0.00 0.00 0.00 47 1019.6
20260502024202 57 261 0.0 0.9 0.00 0.00 0.00 46 1019.7
20260502024047 57 257 0.0 0.9 0.00 0.00 0.00 47 1019.7
20260502023940 58 257 0.0 0.9 0.00 0.00 0.00 46 1019.7
20260502023727 58 306 0.0 0.9 0.00 0.00 0.00 46 1019.6
20260502023623 58 256 0.0 0.9 0.00 0.00 0.00 46 1019.6
20260502023516 58 256 0.0 0.9 0.00 0.00 0.00 46 1019.7
20260502023410 58 243 0.0 0.9 0.00 0.00 0.00 46 1019.6
20260502023303 58 269 0.0 0.9 0.00 0.00 0.00 46 1019.6
20260502023203 58 269 0.0 0.9 0.00 0.00 0.00 46 1019.6
20260502023103 58 269 0.0 0.9 0.00 0.00 0.00 47 1019.7
20260502022946 58 214 0.0 0.9 0.00 0.00 0.00 47 1019.6
20260502022839 58 205 0.0 1.7 0.00 0.00 0.00 46 1019.6
20260502022734 58 231 0.0 1.7 0.00 0.00 0.00 46 1019.6
20260502022601 58 236 0.0 1.7 0.00 0.00 0.00 45 1019.6
20260502022503 58 246 0.0 1.7 0.00 0.00 0.00 45 1019.6
20260502022402 58 230 0.0 1.7 0.00 0.00 0.00 45 1019.5
20260502022302 59 236 0.0 1.7 0.00 0.00 0.00 44 1019.5
20260502022202 59 236 0.0 1.7 0.00 0.00 0.00 44 1019.5
20260502022101 59 236 0.0 1.7 0.00 0.00 0.00 44 1019.5
20260502022044 59 236 0.0 1.7 0.00 0.00 0.00 44 1019.5
20260502021938 59 216 0.0 0.9 0.00 0.00 0.00 43 1019.5
20260502021832 59 216 0.0 0.9 0.00 0.00 0.00 43 1019.5
20260502021726 59 252 0.0 1.7 0.00 0.00 0.00 42 1019.4
20260502021619 59 250 0.0 1.7 0.00 0.00 0.00 42 1019.4
20260502021407 59 244 0.0 2.6 0.00 0.00 0.00 42 1019.4
20260502021302 60 236 0.0 2.6 0.00 0.00 0.00 41 1019.4
20260502021201 60 252 0.0 2.6 0.00 0.00 0.00 41 1019.4
20260502021102 60 232 0.0 2.6 0.00 0.00 0.00 41 1019.4
20260502021002 60 139 0.0 2.6 0.00 0.00 0.00 40 1019.4
20260502020944 60 139 0.0 2.6 0.00 0.00 0.00 40 1019.4
20260502020837 60 236 0.0 2.6 0.00 0.00 0.00 41 1019.4
20260502020731 60 248 0.0 2.6 0.00 0.00 0.00 41 1019.4
20260502020625 60 271 0.0 1.7 0.00 0.00 0.00 41 1019.4
20260502020520 60 225 0.0 1.7 0.00 0.00 0.00 41 1019.4
20260502020414 60 225 0.0 2.6 0.00 0.00 0.00 41 1019.4
20260502020307 60 270 0.9 3.5 0.00 0.00 0.00 41 1019.4
20260502020202 60 271 0.9 3.5 0.00 0.00 0.00 41 1019.4
20260502020005 60 224 0.9 3.5 0.00 0.00 0.00 41 1019.4
20260502015903 61 261 0.9 3.5 0.00 0.00 0.00 41 1019.4
20260502015803 61 240 0.9 3.5 0.00 0.00 0.00 42 1019.3
20260502015702 61 217 0.9 3.5 0.00 0.00 0.00 41 1019.3
20260502015602 61 237 0.9 3.5 0.00 0.00 0.00 40 1019.3
20260502015503 61 215 0.9 3.5 0.00 0.00 0.00 41 1019.2
20260502015403 61 252 0.9 3.5 0.00 0.00 0.00 41 1019.3
20260502015305 61 165 0.9 3.5 0.00 0.00 0.00 42 1019.3
20260502015203 61 166 1.7 7.0 0.00 0.00 0.00 42 1019.2
20260502015102 61 236 1.7 7.0 0.00 0.00 0.00 41 1019.3
20260502014903 61 219 1.7 7.0 0.00 0.00 0.00 40 1019.3
20260502014703 62 242 1.7 6.1 0.00 0.00 0.00 40 1019.2
20260502014602 62 207 1.7 6.1 0.00 0.00 0.00 40 1019.3
20260502014517 62 161 1.7 6.1 0.00 0.00 0.00 40 1019.3
20260502014411 62 119 1.7 7.0 0.00 0.00 0.00 39 1019.2
20260502014201 62 252 0.9 6.1 0.00 0.00 0.00 39 1019.2
20260502014101 62 238 0.9 6.1 0.00 0.00 0.00 38 1019.2
20260502014002 62 184 0.9 6.1 0.00 0.00 0.00 37 1019.2
20260502013902 62 201 0.9 3.5 0.00 0.00 0.00 37 1019.2
20260502013801 62 250 0.9 3.5 0.00 0.00 0.00 38 1019.1
20260502013701 63 153 0.9 6.1 0.00 0.00 0.00 37 1019.2
20260502013603 63 215 0.9 6.1 0.00 0.00 0.00 38 1019.1
20260502013502 63 191 1.7 6.1 0.00 0.00 0.00 37 1019.1
20260502013402 63 213 1.7 6.1 0.00 0.00 0.00 35 1019.2
20260502013303 63 233 1.7 6.1 0.00 0.00 0.00 36 1019.1
20260502013202 63 281 1.7 6.1 0.00 0.00 0.00 34 1019.2
20260502013003 63 108 1.7 7.0 0.00 0.00 0.00 36 1019.1
20260502012945 63 252 1.7 7.0 0.00 0.00 0.00 35 1019.1
20260502012734 63 236 1.7 6.1 0.00 0.00 0.00 35 1019.1
20260502012628 63 227 1.7 6.1 0.00 0.00 0.00 35 1019.1
20260502012415 64 167 1.7 6.1 0.00 0.00 0.00 35 1019.1
20260502012310 64 195 1.7 6.1 0.00 0.00 0.00 35 1019.1
20260502012002 64 236 1.7 6.1 0.00 0.00 0.00 33 1019.1
20260502011900 64 159 1.7 6.1 0.00 0.00 0.00 34 1019.1
20260502011846 64 146 1.7 6.1 0.00 0.00 0.00 34 1019.1
20260502011501 65 241 1.7 6.1 0.00 0.00 0.00 34 1019.1
20260502011402 65 209 1.7 6.1 0.00 0.00 0.00 35 1019.1
20260502011202 65 241 1.7 6.1 0.00 0.00 0.00 34 1019.1
20260502011103 65 255 1.7 6.1 0.00 0.00 0.00 35 1019.1
20260502011004 65 263 1.7 5.2 0.00 0.00 0.00 34 1019.1
20260502010924 65 139 1.7 5.2 0.00 0.00 0.00 34 1019.1
20260502010817 65 213 1.7 5.2 0.00 0.00 0.00 35 1019.1
20260502010711 65 150 1.7 5.2 0.00 0.00 0.00 34 1019.1
20260502010606 65 286 1.7 5.2 0.00 0.00 0.00 34 1019.1
20260502010502 66 163 1.7 5.2 0.00 0.00 0.00 35 1019.2
20260502010403 66 279 1.7 5.2 0.00 0.00 0.00 35 1019.2
20260502010302 66 155 1.7 5.2 0.00 0.00 0.00 34 1019.1
20260502010203 66 140 1.7 5.2 0.00 0.00 0.00 36 1019.2
20260502010004 66 292 1.7 6.1 0.00 0.00 0.00 34 1019.1
20260502005819 66 238 1.7 6.1 0.00 0.00 0.00 35 1019.1
20260502005714 66 210 1.7 6.1 0.00 0.00 0.00 35 1019.2
20260502005601 66 160 2.6 6.1 0.00 0.00 0.00 35 1019.3
20260502005503 66 141 2.6 6.1 0.00 0.00 0.00 34 1019.2
20260502005403 66 250 2.6 7.0 0.00 0.00 0.00 36 1019.2
20260502005305 66 248 2.6 7.0 0.00 0.00 0.00 35 1019.1
20260502005201 66 213 2.6 7.0 0.00 0.00 0.00 36 1019.1
20260502005101 66 140 2.6 7.0 0.00 0.00 0.00 35 1019.2
20260502005003 66 261 2.6 7.0 0.00 0.00 0.00 35 1019.2
20260502004942 66 233 2.6 7.0 0.00 0.00 0.00 35 1019.2
20260502004835 66 236 2.6 7.0 0.00 0.00 0.00 35 1019.1
20260502004730 66 186 2.6 7.0 0.00 0.00 0.00 34 1019.1
20260502004623 66 185 2.6 7.0 0.00 0.00 0.00 35 1019.2
20260502004518 66 171 2.6 7.0 0.00 0.00 0.00 36 1019.2
20260502004411 66 159 2.6 7.0 0.00 0.00 0.00 35 1019.1
20260502004306 66 213 2.6 7.0 0.00 0.00 0.00 35 1019.1
20260502004202 67 147 1.7 7.0 0.00 0.00 0.00 35 1019.1
20260502004101 67 211 1.7 7.0 0.00 0.00 0.00 35 1019.1
20260502004003 67 262 1.7 7.0 0.00 0.00 0.00 33 1019.1
20260502003901 67 211 1.7 7.0 0.00 0.00 0.00 32 1019.1
20260502003703 67 277 1.7 6.1 0.00 0.00 0.00 31 1019.1
20260502003603 67 232 1.7 6.1 0.00 0.00 0.00 32 1019.2
20260502003403 67 114 1.7 6.1 0.00 0.00 0.00 32 1019.1
20260502003302 67 266 1.7 6.1 0.00 0.00 0.00 32 1019.1
20260502003102 67 222 1.7 5.2 0.00 0.00 0.00 30 1019.1
20260502003041 67 124 1.7 6.1 0.00 0.00 0.00 29 1019.1
20260502002828 68 305 1.7 6.1 0.00 0.00 0.00 28 1019.1
20260502002721 67 87 1.7 6.1 0.00 0.00 0.00 29 1019.1
20260502002616 67 221 1.7 7.0 0.00 0.00 0.00 29 1019.2
20260502002509 67 163 1.7 7.0 0.00 0.00 0.00 29 1019.2
20260502002404 67 270 1.7 7.0 0.00 0.00 0.00 28 1019.1
20260502002201 67 259 2.6 7.0 0.00 0.00 0.00 28 1019.2
20260502002101 67 183 2.6 7.8 0.00 0.00 0.00 30 1019.1
20260502001936 67 238 2.6 7.0 0.00 0.00 0.00 30 1019.2
20260502001830 67 192 2.6 7.0 0.00 0.00 0.00 28 1019.2
20260502001702 67 305 1.7 7.0 0.00 0.00 0.00 28 1019.3
20260502001602 67 248 2.6 7.0 0.00 0.00 0.00 29 1019.2
20260502001443 67 308 2.6 7.0 0.00 0.00 0.00 30 1019.2
20260502001334 67 271 2.6 7.0 0.00 0.00 0.00 29 1019.2
20260502001203 67 270 1.7 7.0 0.00 0.00 0.00 29 1019.2
20260502001102 67 342 1.7 6.1 0.00 0.00 0.00 29 1019.3
20260502001003 67 136 1.7 5.2 0.00 0.00 0.00 29 1019.3
20260502000902 67 9 1.7 4.3 0.00 0.00 0.00 27 1019.4
20260502000801 67 318 1.7 4.3 0.00 0.00 0.00 27 1019.2
20260502000748 68 331 1.7 4.3 0.00 0.00 0.00 27 1019.2
20260502000640 68 29 1.7 6.1 0.00 0.00 0.00 28 1019.3
20260502000532 67 265 1.7 6.1 0.00 0.00 0.00 29 1019.3
20260502000425 67 261 1.7 6.1 0.00 0.00 0.00 30 1019.3
20260502000317 67 268 1.7 6.1 0.00 0.00 0.00 30 1019.3
20260502000208 67 138 1.7 6.1 0.00 0.00 0.00 31 1019.3
20260502000101 67 218 1.7 6.1 0.00 0.00 0.00 29 1019.3
20260502000005 67 277 1.7 6.1 0.00 0.00 0.00 28 1019.3
20260501235903 67 240 1.7 6.1 0.00 0.00 0.00 28 1019.3
20260501235844 67 159 1.7 6.1 0.00 0.00 0.00 28 1019.3
20260501235736 67 262 1.7 5.2 0.00 0.00 0.00 29 1019.2
20260501235628 67 160 1.7 5.2 0.00 0.00 0.00 28 1019.3
20260501235409 67 198 1.7 5.2 0.00 0.00 0.00 30 1019.3
20260501235305 67 225 1.7 5.2 0.00 0.00 0.00 31 1019.3
20260501235202 67 241 1.7 6.1 0.00 0.00 0.00 32 1019.4
20260501235101 67 292 2.6 7.0 0.00 0.00 0.00 29 1019.4
20260501234826 67 299 2.6 7.0 0.00 0.00 0.00 29 1019.4
20260501234607 67 237 2.6 7.0 0.00 0.00 0.00 29 1019.3
20260501234402 67 249 1.7 7.0 0.00 0.00 0.00 28 1019.3
20260501234243 67 216 1.7 7.8 0.00 0.00 0.00 28 1019.4
20260501234136 67 150 2.6 6.1 0.00 0.00 0.00 29 1019.4
20260501234029 67 235 2.6 6.1 0.00 0.00 0.00 30 1019.4
20260501233918 67 231 2.6 7.0 0.00 0.00 0.00 30 1019.4
20260501233809 67 211 2.6 9.6 0.00 0.00 0.00 30 1019.4
20260501233702 67 219 2.6 9.6 0.00 0.00 0.00 29 1019.4
20260501233517 67 197 2.6 9.6 0.00 0.00 0.00 30 1019.4
20260501233408 67 144 2.6 12.2 0.00 0.00 0.00 29 1019.4
20260501233302 67 239 2.6 12.2 0.00 0.00 0.00 29 1019.4
20260501233201 67 128 2.6 12.2 0.00 0.00 0.00 30 1019.4
20260501233149 67 219 2.6 12.2 0.00 0.00 0.00 30 1019.4
20260501233040 67 243 2.6 12.2 0.00 0.00 0.00 28 1019.4
20260501232821 67 345 2.6 12.2 0.00 0.00 0.00 29 1019.4
20260501232604 67 241 1.7 12.2 0.00 0.00 0.00 30 1019.4
20260501232502 67 14 1.7 7.8 0.00 0.00 0.00 29 1019.4
20260501232401 67 301 1.7 7.8 0.00 0.00 0.00 31 1019.4
20260501232305 67 148 1.7 7.8 0.00 0.00 0.00 29 1019.5
20260501232232 67 212 1.7 7.8 0.00 0.00 0.00 30 1019.5
20260501232123 67 112 1.7 7.0 0.00 0.00 0.00 31 1019.4
20260501232023 67 344 1.7 7.0 0.00 0.00 0.00 29 1019.5
20260501231908 67 246 1.7 7.0 0.00 0.00 0.00 31 1019.4
20260501231802 67 311 1.7 6.1 0.00 0.00 0.00 30 1019.4
20260501231702 67 254 1.7 7.8 0.00 0.00 0.00 30 1019.4
20260501231602 67 260 1.7 7.8 0.00 0.00 0.00 29 1019.5
20260501231502 67 225 2.6 7.8 0.00 0.00 0.00 32 1019.5
20260501231403 67 244 2.6 7.8 0.00 0.00 0.00 29 1019.5
20260501231346 67 279 2.6 7.8 0.00 0.00 0.00 29 1019.5
20260501231128 66 267 2.6 7.8 0.00 0.00 0.00 31 1019.5
20260501230909 67 261 2.6 7.8 0.00 0.00 0.00 30 1019.5
20260501230806 67 195 2.6 7.0 0.00 0.00 0.00 29 1019.6
20260501230501 67 191 2.6 7.0 0.00 0.00 0.00 29 1019.5
20260501230401 67 153 2.6 7.0 0.00 0.00 0.00 29 1019.5
20260501230344 67 275 2.6 7.0 0.00 0.00 0.00 30 1019.5
20260501230236 67 209 2.6 7.0 0.00 0.00 0.00 29 1019.6
20260501230128 67 248 2.6 7.0 0.00 0.00 0.00 28 1019.6
20260501230007 67 104 2.6 6.1 0.00 0.00 0.00 31 1019.6
20260501225928 67 196 2.6 6.1 0.00 0.00 0.00 30 1019.6
20260501225818 67 270 2.6 6.1 0.00 0.00 0.00 29 1019.6
20260501225708 67 213 2.6 6.1 0.00 0.00 0.00 30 1019.7
20260501225601 67 130 2.6 7.8 0.00 0.00 0.00 29 1019.6
20260501225502 67 273 2.6 7.8 0.00 0.00 0.00 30 1019.7
20260501225401 66 155 2.6 7.8 0.00 0.00 0.00 29 1019.7
20260501225301 66 225 2.6 7.8 0.00 0.00 0.00 30 1019.6
20260501225202 66 158 2.6 7.8 0.00 0.00 0.00 30 1019.6
20260501225101 66 291 2.6 7.8 0.00 0.00 0.00 29 1019.7
20260501225002 66 225 2.6 7.8 0.00 0.00 0.00 29 1019.7
20260501224944 66 152 2.6 7.8 0.00 0.00 0.00 29 1019.7
20260501224834 66 269 2.6 7.8 0.00 0.00 0.00 28 1019.7
20260501224723 66 185 3.5 7.8 0.00 0.00 0.00 29 1019.6
20260501224614 66 200 3.5 9.6 0.00 0.00 0.00 29 1019.6
20260501224504 67 252 3.5 9.6 0.00 0.00 0.00 29 1019.7
20260501224401 67 230 2.6 9.6 0.00 0.00 0.00 29 1019.7
20260501224301 67 272 3.5 9.6 0.00 0.00 0.00 29 1019.7
20260501224244 67 265 3.5 9.6 0.00 0.00 0.00 29 1019.7
20260501224102 66 154 3.5 9.6 0.00 0.00 0.00 31 1019.6
20260501224003 66 221 3.5 9.6 0.00 0.00 0.00 28 1019.7
20260501223902 66 255 3.5 9.6 0.00 0.00 0.00 29 1019.6
20260501223801 66 257 2.6 10.4 0.00 0.00 0.00 29 1019.6
20260501223746 66 264 2.6 10.4 0.00 0.00 0.00 29 1019.6
20260501223636 66 269 2.6 8.7 0.00 0.00 0.00 29 1019.7
20260501223502 67 246 2.6 8.7 0.00 0.00 0.00 29 1019.7
20260501223402 66 236 3.5 8.7 0.00 0.00 0.00 29 1019.7
20260501223303 66 226 2.6 8.7 0.00 0.00 0.00 28 1019.7
20260501223202 67 34 2.6 8.7 0.00 0.00 0.00 29 1019.7
20260501223101 66 137 2.6 7.0 0.00 0.00 0.00 29 1019.7
20260501223004 66 189 2.6 7.0 0.00 0.00 0.00 30 1019.7
20260501222803 66 125 3.5 7.0 0.00 0.00 0.00 30 1019.8
20260501222702 66 321 3.5 7.0 0.00 0.00 0.00 30 1019.9
20260501222601 66 316 2.6 8.7 0.00 0.00 0.00 29 1019.8
20260501222542 66 335 2.6 8.7 0.00 0.00 0.00 29 1019.8
20260501222431 67 34 2.6 8.7 0.00 0.00 0.00 28 1019.8
20260501222321 67 163 2.6 8.7 0.00 0.00 0.00 29 1019.9
20260501222213 67 276 2.6 8.7 0.00 0.00 0.00 29 1019.9
20260501222102 67 225 2.6 8.7 0.00 0.00 0.00 29 1019.9
20260501222002 67 249 2.6 8.7 0.00 0.00 0.00 30 1019.9
20260501221901 67 261 2.6 8.7 0.00 0.00 0.00 30 1020.0
20260501221802 66 268 3.5 8.7 0.00 0.00 0.00 30 1019.9
20260501221702 67 318 3.5 8.7 0.00 0.00 0.00 30 1020.0
20260501221642 66 53 3.5 8.7 0.00 0.00 0.00 29 1020.0
20260501221503 66 196 3.5 8.7 0.00 0.00 0.00 30 1019.9
20260501221442 66 205 3.5 8.7 0.00 0.00 0.00 30 1019.9
20260501221332 66 287 3.5 8.7 0.00 0.00 0.00 29 1019.9
20260501221221 66 219 3.5 8.7 0.00 0.00 0.00 29 1020.0
20260501221004 66 155 2.6 8.7 0.00 0.00 0.00 31 1020.0
20260501220901 66 304 3.5 8.7 0.00 0.00 0.00 29 1020.0
20260501220803 66 281 3.5 9.6 0.00 0.00 0.00 29 1019.9
20260501220741 66 202 2.6 9.6 0.00 0.00 0.00 29 1019.9
20260501220501 66 234 2.6 11.3 0.00 0.00 0.00 29 1020.1
20260501220401 66 238 2.6 11.3 0.00 0.00 0.00 31 1020.1
20260501220202 66 279 3.5 11.3 0.00 0.00 0.00 29 1020.0
20260501220101 66 252 3.5 11.3 0.00 0.00 0.00 30 1020.1
20260501220027 66 267 3.5 11.3 0.00 0.00 0.00 31 1020.1
20260501215910 66 231 3.5 11.3 0.00 0.00 0.00 29 1020.1
20260501215801 66 61 2.6 11.3 0.00 0.00 0.00 28 1020.1
20260501215540 66 234 2.6 7.8 0.00 0.00 0.00 29 1020.1
20260501215429 66 240 2.6 7.8 0.00 0.00 0.00 30 1020.1
20260501215320 66 253 2.6 6.1 0.00 0.00 0.00 29 1020.0
20260501215210 66 224 2.6 6.1 0.00 0.00 0.00 31 1020.2
20260501215103 66 233 2.6 13.0 0.00 0.00 0.00 30 1020.2
20260501214840 66 123 3.5 13.0 0.00 0.00 0.00 29 1020.1
20260501214730 66 226 3.5 13.0 0.00 0.00 0.00 31 1020.2
20260501214619 66 13 3.5 13.0 0.00 0.00 0.00 31 1020.2
20260501214510 66 270 3.5 13.0 0.00 0.00 0.00 30 1020.2
20260501214402 66 228 3.5 13.0 0.00 0.00 0.00 30 1020.2
20260501214251 66 241 3.5 13.0 0.00 0.00 0.00 31 1020.2
20260501214140 66 155 3.5 9.6 0.00 0.00 0.00 30 1020.1
20260501214031 66 255 3.5 8.7 0.00 0.00 0.00 30 1020.2
20260501213921 66 313 3.5 8.7 0.00 0.00 0.00 33 1020.3
20260501213601 66 236 3.5 10.4 0.00 0.00 0.00 31 1020.2
20260501213549 66 317 3.5 10.4 0.00 0.00 0.00 32 1020.2
20260501213440 66 248 3.5 10.4 0.00 0.00 0.00 33 1020.2
20260501213330 66 300 2.6 10.4 0.00 0.00 0.00 33 1020.3
20260501213109 66 171 3.5 8.7 0.00 0.00 0.00 33 1020.3
20260501212909 66 152 3.5 12.2 0.00 0.00 0.00 33 1020.4
20260501212701 65 198 3.5 12.2 0.00 0.00 0.00 31 1020.4
20260501212649 65 211 3.5 12.2 0.00 0.00 0.00 31 1020.4
20260501212402 65 247 4.3 12.2 0.00 0.00 0.00 32 1020.4
20260501212301 65 222 3.5 12.2 0.00 0.00 0.00 31 1020.4
20260501212203 65 259 3.5 12.2 0.00 0.00 0.00 32 1020.4
20260501212101 65 213 3.5 8.7 0.00 0.00 0.00 32 1020.4
20260501212004 65 232 3.5 8.7 0.00 0.00 0.00 32 1020.5
20260501211948 65 240 3.5 8.7 0.00 0.00 0.00 32 1020.5
20260501211838 65 232 3.5 8.7 0.00 0.00 0.00 33 1020.5
20260501211727 65 153 3.5 7.8 0.00 0.00 0.00 33 1020.5
20260501211617 65 224 3.5 7.8 0.00 0.00 0.00 32 1020.4
20260501211507 65 259 3.5 7.8 0.00 0.00 0.00 29 1020.5
20260501211401 65 256 3.5 7.8 0.00 0.00 0.00 30 1020.6
20260501211301 65 249 3.5 8.7 0.00 0.00 0.00 32 1020.5
20260501211248 65 238 3.5 8.7 0.00 0.00 0.00 32 1020.5
20260501211137 66 247 2.6 8.7 0.00 0.00 0.00 31 1020.6
20260501211030 66 269 3.5 8.7 0.00 0.00 0.00 34 1020.5
20260501210918 65 242 2.6 8.7 0.00 0.00 0.00 33 1020.5
20260501210801 65 175 2.6 8.7 0.00 0.00 0.00 33 1020.6
20260501210702 65 247 2.6 8.7 0.00 0.00 0.00 32 1020.6
20260501210623 65 209 3.5 8.7 0.00 0.00 0.00 33 1020.6
20260501210513 65 232 3.5 8.7 0.00 0.00 0.00 31 1020.5
20260501210404 65 225 3.5 7.8 0.00 0.00 0.00 31 1020.6
20260501210302 65 347 3.5 7.8 0.00 0.00 0.00 32 1020.6
20260501210144 65 240 3.5 7.8 0.00 0.00 0.00 32 1020.6
20260501205902 65 301 3.5 7.8 0.00 0.00 0.00 30 1020.7
20260501205802 65 201 3.5 10.4 0.00 0.00 0.00 30 1020.6
20260501205702 65 239 3.5 10.4 0.00 0.00 0.00 30 1020.6
20260501205602 65 267 3.5 10.4 0.00 0.00 0.00 31 1020.6
20260501205501 65 265 4.3 10.4 0.00 0.00 0.00 31 1020.6
20260501205442 65 21 4.3 10.4 0.00 0.00 0.00 31 1020.6
20260501205332 65 261 4.3 10.4 0.00 0.00 0.00 31 1020.5
20260501205221 65 242 4.3 10.4 0.00 0.00 0.00 30 1020.6
20260501205111 65 240 4.3 10.4 0.00 0.00 0.00 29 1020.7
20260501205002 65 229 3.5 10.4 0.00 0.00 0.00 31 1020.7
20260501204902 65 249 3.5 10.4 0.00 0.00 0.00 31 1020.7
20260501204801 65 146 3.5 10.4 0.00 0.00 0.00 31 1020.7
20260501204522 65 266 3.5 8.7 0.00 0.00 0.00 29 1020.7
20260501204412 66 186 3.5 8.7 0.00 0.00 0.00 31 1020.6
20260501204301 65 130 3.5 11.3 0.00 0.00 0.00 32 1020.6
20260501204203 65 287 3.5 11.3 0.00 0.00 0.00 34 1020.7
20260501204103 65 281 3.5 11.3 0.00 0.00 0.00 31 1020.7
20260501204003 65 290 3.5 11.3 0.00 0.00 0.00 30 1020.6
20260501203902 65 264 3.5 11.3 0.00 0.00 0.00 31 1020.6
20260501203802 65 266 3.5 11.3 0.00 0.00 0.00 30 1020.6
20260501203702 65 259 3.5 11.3 0.00 0.00 0.00 31 1020.6
20260501203602 66 146 3.5 11.3 0.00 0.00 0.00 30 1020.6
20260501203502 66 213 3.5 11.3 0.00 0.00 0.00 30 1020.6
20260501203406 66 290 3.5 7.8 0.00 0.00 0.00 31 1020.6
20260501203303 66 313 3.5 7.0 0.00 0.00 0.00 33 1020.6
20260501203201 66 199 3.5 7.0 0.00 0.00 0.00 32 1020.6
20260501203146 66 243 3.5 7.0 0.00 0.00 0.00 33 1020.6
20260501202706 65 281 4.3 10.4 0.00 0.00 0.00 34 1020.6
20260501202602 65 265 4.3 10.4 0.00 0.00 0.00 34 1020.6
20260501202501 65 252 4.3 10.4 0.00 0.00 0.00 33 1020.7
20260501202446 65 244 4.3 10.4 0.00 0.00 0.00 34 1020.7
20260501202336 65 122 4.3 10.4 0.00 0.00 0.00 35 1020.5
20260501202201 65 215 3.5 8.7 0.00 0.00 0.00 34 1020.6
20260501202101 65 137 3.5 8.7 0.00 0.00 0.00 35 1020.6
20260501202004 65 209 3.5 8.7 0.00 0.00 0.00 34 1020.7
20260501201902 65 240 3.5 8.7 0.00 0.00 0.00 35 1020.7
20260501201802 65 284 3.5 8.7 0.00 0.00 0.00 34 1020.5
20260501201706 66 229 3.5 7.0 0.00 0.00 0.00 35 1020.5
20260501201601 66 250 3.5 7.8 0.00 0.00 0.00 35 1020.6
20260501201503 66 246 3.5 7.8 0.00 0.00 0.00 35 1020.6
20260501201403 65 223 3.5 7.8 0.00 0.00 0.00 36 1020.6
20260501201301 65 250 3.5 7.8 0.00 0.00 0.00 37 1020.6
20260501201241 65 202 3.5 7.8 0.00 0.00 0.00 35 1020.6
20260501201134 64 313 3.5 7.8 0.00 0.00 0.00 36 1020.7
20260501201028 64 236 3.5 7.8 0.00 0.00 0.00 34 1020.6
20260501200920 64 213 3.5 7.8 0.00 0.00 0.00 32 1020.6
20260501200815 65 261 3.5 7.8 0.00 0.00 0.00 32 1020.7
20260501200708 65 301 3.5 8.7 0.00 0.00 0.00 34 1020.5
20260501200603 65 220 2.6 8.7 0.00 0.00 0.00 34 1020.6
20260501200502 65 248 2.6 7.0 0.00 0.00 0.00 33 1020.7
20260501200402 65 270 2.6 6.1 0.00 0.00 0.00 32 1020.7
20260501200302 65 221 2.6 6.1 0.00 0.00 0.00 31 1020.7
20260501200004 65 159 2.6 6.1 0.00 0.00 0.00 33 1020.7
20260501195902 64 236 2.6 8.7 0.00 0.00 0.00 30 1020.7
20260501195802 65 242 2.6 8.7 0.00 0.00 0.00 30 1020.8
20260501195702 64 264 3.5 8.7 0.00 0.00 0.00 34 1020.7
20260501195602 64 251 2.6 8.7 0.00 0.00 0.00 32 1020.8
20260501195502 64 146 2.6 8.7 0.00 0.00 0.00 32 1020.8
20260501195401 65 223 3.5 8.7 0.00 0.00 0.00 31 1020.8
20260501195305 65 302 3.5 7.8 0.00 0.00 0.00 32 1020.8
20260501195240 65 236 3.5 7.8 0.00 0.00 0.00 32 1020.8
20260501195135 65 198 3.5 7.8 0.00 0.00 0.00 31 1020.8
20260501195030 65 250 3.5 7.8 0.00 0.00 0.00 34 1020.8
20260501194923 65 248 2.6 8.7 0.00 0.00 0.00 34 1020.7
20260501194710 65 238 2.6 7.8 0.00 0.00 0.00 35 1020.7
20260501194605 65 132 2.6 7.8 0.00 0.00 0.00 34 1020.8
20260501194502 65 242 2.6 7.8 0.00 0.00 0.00 34 1020.8
20260501194401 65 244 2.6 8.7 0.00 0.00 0.00 32 1020.8
20260501194302 65 131 2.6 7.8 0.00 0.00 0.00 33 1020.8
20260501194203 65 167 2.6 8.7 0.00 0.00 0.00 32 1020.9
20260501194102 65 266 2.6 8.7 0.00 0.00 0.00 32 1020.8
20260501194004 65 244 2.6 8.7 0.00 0.00 0.00 33 1020.8
20260501193902 65 164 2.6 8.7 0.00 0.00 0.00 35 1020.8
20260501193803 65 214 2.6 8.7 0.00 0.00 0.00 34 1020.9
20260501193502 65 254 2.6 8.7 0.00 0.00 0.00 35 1021.0
20260501193401 65 240 2.6 8.7 0.00 0.00 0.00 34 1020.9
20260501193302 65 246 2.6 6.1 0.00 0.00 0.00 34 1020.8
20260501193201 64 236 1.7 5.2 0.00 0.00 0.00 35 1021.0
20260501193102 64 168 1.7 6.1 0.00 0.00 0.00 35 1021.0
20260501193002 64 207 2.6 6.1 0.00 0.00 0.00 31 1021.0
20260501192801 64 191 2.6 6.1 0.00 0.00 0.00 32 1021.0
20260501192701 64 239 2.6 6.1 0.00 0.00 0.00 35 1020.9
20260501192501 64 145 2.6 6.1 0.00 0.00 0.00 34 1021.0
20260501192439 64 257 2.6 6.1 0.00 0.00 0.00 34 1021.0
20260501192332 64 257 2.6 8.7 0.00 0.00 0.00 34 1021.0
20260501192227 64 161 2.6 8.7 0.00 0.00 0.00 34 1021.0
20260501192121 64 227 2.6 8.7 0.00 0.00 0.00 37 1021.1
20260501192023 64 224 2.6 8.7 0.00 0.00 0.00 37 1021.1
20260501191715 64 236 3.5 8.7 0.00 0.00 0.00 34 1021.2
20260501191608 64 207 3.5 8.7 0.00 0.00 0.00 35 1021.1
20260501191503 64 257 2.6 7.0 0.00 0.00 0.00 36 1021.2
20260501191402 64 257 2.6 7.0 0.00 0.00 0.00 35 1021.2
20260501191302 64 151 2.6 7.0 0.00 0.00 0.00 35 1021.2
20260501191202 64 222 2.6 7.0 0.00 0.00 0.00 34 1021.1
20260501191101 64 217 2.6 7.8 0.00 0.00 0.00 33 1021.2
20260501191003 64 157 2.6 7.8 0.00 0.00 0.00 36 1021.3
20260501190901 63 213 2.6 7.8 0.00 0.00 0.00 34 1021.2
20260501190843 63 238 2.6 7.8 0.00 0.00 0.00 33 1021.2
20260501190737 63 240 2.6 7.8 0.00 0.00 0.00 32 1021.2
20260501190630 63 180 2.6 7.8 0.00 0.00 0.00 34 1021.3
20260501190525 63 159 2.6 7.8 0.00 0.00 0.00 34 1021.3
20260501190418 63 271 2.6 7.8 0.00 0.00 0.00 34 1021.4
20260501190313 64 238 2.6 7.8 0.00 0.00 0.00 33 1021.4
20260501190004 64 175 2.6 7.0 0.00 0.00 0.00 35 1021.4
20260501185902 64 238 3.5 7.0 0.00 0.00 0.00 36 1021.5
20260501185802 64 151 3.5 7.0 0.00 0.00 0.00 36 1021.5
20260501185702 64 222 3.5 8.7 0.00 0.00 0.00 33 1021.6
20260501185601 64 235 2.6 8.7 0.00 0.00 0.00 35 1021.6
20260501185405 64 238 2.6 9.6 0.00 0.00 0.00 35 1021.6
20260501185305 64 175 2.6 9.6 0.00 0.00 0.00 35 1021.6
20260501185201 64 196 2.6 9.6 0.00 0.00 0.00 32 1021.6
20260501185103 64 196 2.6 9.6 0.00 0.00 0.00 33 1021.6
20260501185003 64 161 2.6 9.6 0.00 0.00 0.00 31 1021.6
20260501184901 65 113 1.7 9.6 0.00 0.00 0.00 31 1021.6
20260501184802 65 190 1.7 9.6 0.00 0.00 0.00 34 1021.6
20260501184745 65 90 1.7 9.6 0.00 0.00 0.00 34 1021.6
20260501184639 65 244 1.7 9.6 0.00 0.00 0.00 33 1021.6
20260501184502 65 286 1.7 5.2 0.00 0.00 0.00 36 1021.7
20260501184403 65 151 1.7 6.1 0.00 0.00 0.00 33 1021.6
20260501184303 64 132 1.7 6.1 0.00 0.00 0.00 33 1021.6
20260501184202 64 248 2.6 6.1 0.00 0.00 0.00 34 1021.7
20260501184103 64 184 2.6 6.1 0.00 0.00 0.00 32 1021.6
20260501183901 64 242 1.7 6.1 0.00 0.00 0.00 30 1021.7
20260501183803 64 232 1.7 6.1 0.00 0.00 0.00 29 1021.7
20260501183722 64 184 1.7 6.1 0.00 0.00 0.00 29 1021.6
20260501183616 64 242 1.7 7.0 0.00 0.00 0.00 30 1021.7
20260501183511 64 185 1.7 3.5 0.00 0.00 0.00 29 1021.7
20260501183404 64 199 1.7 3.5 0.00 0.00 0.00 29 1021.6
20260501183302 64 188 1.7 3.5 0.00 0.00 0.00 30 1021.6
20260501183201 63 288 1.7 4.3 0.00 0.00 0.00 27 1021.6
20260501183102 64 146 1.7 4.3 0.00 0.00 0.00 27 1021.7
20260501183002 64 162 1.7 4.3 0.00 0.00 0.00 27 1021.7
20260501182902 63 288 1.7 4.3 0.00 0.00 0.00 29 1021.7
20260501182802 63 232 1.7 4.3 0.00 0.00 0.00 30 1021.7
20260501182542 63 128 2.6 5.2 0.00 0.00 0.00 31 1021.7
20260501182436 62 134 2.6 5.2 0.00 0.00 0.00 28 1021.7
20260501182330 62 325 2.6 6.1 0.00 0.00 0.00 28 1021.7
20260501182225 62 324 2.6 6.1 0.00 0.00 0.00 29 1021.7
20260501182118 62 252 2.6 7.0 0.00 0.00 0.00 26 1021.8
20260501182024 62 208 2.6 7.0 0.00 0.00 0.00 30 1021.8
20260501181906 63 228 2.6 7.0 0.00 0.00 0.00 31 1021.8
20260501181802 63 164 2.6 7.0 0.00 0.00 0.00 30 1021.8
20260501181702 63 254 2.6 7.0 0.00 0.00 0.00 29 1021.8
20260501181601 63 218 2.6 7.0 0.00 0.00 0.00 30 1021.7
20260501181502 63 206 2.6 7.0 0.00 0.00 0.00 30 1021.7
20260501181441 63 178 2.6 7.0 0.00 0.00 0.00 30 1021.7
20260501181228 63 161 2.6 6.1 0.00 0.00 0.00 33 1021.8
20260501181101 63 248 2.6 7.0 0.00 0.00 0.00 32 1021.9
20260501181002 63 257 2.6 7.0 0.00 0.00 0.00 31 1021.8